Eden Prairie, MN

6:57 AM CDT on August 24, 2016 (GMT -0500)
Flying Cloud

Weather History for KFCM - January, 2014

Change the Weather History Date:

Tuesday, January 7, 2014

  Actual Average Record
Temperature  
Mean Temperature -7 °F -  
Max Temperature 3 °F 23 °F 53 °F (2003)
Min Temperature -17 °F 8 °F -17 °F (2014)
Degree Days  
Heating Degree Days 72    
Moisture  
Dew Point -14 °F    
Average Humidity 68    
Maximum Humidity 82    
Minimum Humidity 53    
Precipitation  
Precipitation 0.00 in - - ()
Sea Level Pressure  
Sea Level Pressure 30.25 in    
Wind  
Wind Speed 5 mph (WSW)    
Max Wind Speed 8 mph    
Max Gust Speed -    
Visibility 10 miles    
Events      
Averages and records for this station are not official NWS values.
T = Trace of Precipitation, MM = Missing Value Source: NWS Daily Summary

Daily Weather History Graph

Daily Weather History Graph

Search for Another Location

Airport or City:

Trip Planner

Search our weather history database for the weather conditions in past years. The results will help you decide how hot, cold, wet, or windy it might be!

Date:

Astronomy

Jan. 07, 2014 Rise Set
Actual Time 7:51 AM CST 4:49 PM CST
Civil Twilight 7:17 AM CST 5:22 PM CST
Nautical Twilight 6:41 AM CST 5:59 PM CST
Astronomical Twilight 6:05 AM CST 6:34 PM CST
Moon 11:20 AM CST (1/7) No Moon Set
Length of Visible Light 10h 05m
Length of Day
8h 58m
Waxing Crescent, 46% of the Moon is Illuminated
Jan 7
Waxing Crescent
Jan 7
First Quarter
Jan 15
Full
Jan 23
Last Quarter
Jan 30
New

Hourly Weather History & Observations

Time (CST) Temp. Windchill Dew Point Humidity Pressure Visibility Wind Dir Wind Speed Gust Speed Precip Events Conditions
12:53 AM -16.1 °F -30.6 °F -20.0 °F 82% 30.25 in 10.0 mi SW 5.8 mph - N/A   Clear
1:53 AM -15.0 °F -27.4 °F -20.0 °F 78% 30.23 in 10.0 mi SW 4.6 mph - N/A   Clear
2:53 AM -17.0 °F -29.7 °F -23.1 °F 74% 30.24 in 10.0 mi SW 4.6 mph - N/A   Clear
3:53 AM -15.0 °F -31.0 °F -23.1 °F 67% 30.23 in 10.0 mi WSW 6.9 mph - N/A   Scattered Clouds
4:53 AM -14.1 °F -28.3 °F -18.9 °F 79% 30.22 in 10.0 mi WSW 5.8 mph - N/A   Partly Cloudy
5:53 AM -14.1 °F -23.9 °F -20.9 °F 71% 30.22 in 10.0 mi WSW 3.5 mph - N/A   Clear
6:53 AM -13.0 °F -22.7 °F -20.0 °F 71% 30.22 in 10.0 mi WSW 3.5 mph - N/A   Clear
7:53 AM -11.0 °F -22.8 °F -17.0 °F 75% 30.22 in 10.0 mi SW 4.6 mph - N/A   Mostly Cloudy
8:53 AM -9.0 °F -22.3 °F -15.0 °F 75% 30.23 in 10.0 mi SW 5.8 mph - N/A   Clear
9:53 AM -7.1 °F -22.8 °F -14.1 °F 72% 30.26 in 10.0 mi SW 8.1 mph - N/A   Clear
10:53 AM -4.0 °F -17.8 °F -13.0 °F 65% 30.25 in 10.0 mi SW 6.9 mph - N/A   Clear
11:53 AM -0.0 °F -14.2 °F -11.9 °F 57% 30.23 in 10.0 mi WSW 8.1 mph - N/A   Clear
12:53 PM 1.0 °F -10.3 °F -11.0 °F 57% 30.19 in 10.0 mi West 5.8 mph - N/A   Clear
1:53 PM 3.0 °F -9.3 °F -9.9 °F 55% 30.20 in 10.0 mi WSW 6.9 mph - N/A   Clear
2:53 PM 3.9 °F -3.4 °F -9.9 °F 53% 30.22 in 10.0 mi West 3.5 mph - N/A   Clear
3:53 PM 3.0 °F -9.3 °F -9.0 °F 57% 30.23 in 10.0 mi West 6.9 mph - N/A   Clear
4:53 PM 1.9 °F -7.6 °F -9.0 °F 60% 30.25 in 10.0 mi West 4.6 mph - N/A   Clear
5:53 PM 1.0 °F -8.7 °F -9.0 °F 63% 30.26 in 10.0 mi WSW 4.6 mph - N/A   Clear
6:53 PM 1.0 °F - -9.0 °F 63% 30.26 in 10.0 mi Calm Calm - N/A   Clear
7:53 PM -0.9 °F -11.0 °F -9.0 °F 69% 30.29 in 10.0 mi WSW 4.6 mph - N/A   Clear
8:53 PM -2.0 °F -12.2 °F -9.0 °F 72% 30.29 in 10.0 mi West 4.6 mph - N/A   Clear
9:53 PM -2.9 °F -13.3 °F -9.9 °F 72% 30.30 in 10.0 mi WNW 4.6 mph - N/A   Clear
10:53 PM -4.0 °F -12.4 °F -9.9 °F 76% 30.32 in 10.0 mi West 3.5 mph - N/A   Scattered Clouds
11:53 PM -4.0 °F -14.6 °F -9.9 °F 76% 30.32 in 10.0 mi West 4.6 mph - N/A   Partly Cloudy